Weather History for Westhampton Beach, NY

Change the Weather History Date:

Sunday, August 11, 2013

  Actual Average Record
Temperature  
Mean Temperature 64 °F -  
Max Temperature 79 °F 78 °F 91 °F (2005)
Min Temperature 51 °F 62 °F 51 °F (2013)
Degree Days  
Heating Degree Days 1    
Growing Degree Days 14 (Base 50)    
Moisture  
Dew Point 55 °F    
Average Humidity 64    
Maximum Humidity 89    
Minimum Humidity 42    
Precipitation  
Precipitation 0.00 in - - ()
Sea Level Pressure  
Sea Level Pressure 30.09 in    
Wind  
Wind Speed 3 mph (WSW)    
Max Wind Speed 9 mph    
Max Gust Speed -    
Visibility 10 miles    
Events      
Averages and records for this station are not official NWS values.
T = Trace of Precipitation, MM = Missing Value Source: NWS Daily Summary

Daily Weather History Graph

Daily Weather History Graph

Search for Another Location

Airport:

Trip Planner

Search our weather history database for the weather conditions in past years. The results will help you decide how hot, cold, wet, or windy it might be!

Date:

Astronomy

Aug. 11, 2013 Rise Set
Actual Time 5:56 AM EDT 7:53 PM EDT
Civil Twilight 5:26 AM EDT 8:23 PM EDT
Nautical Twilight 4:50 AM EDT 8:59 PM EDT
Astronomical Twilight 4:11 AM EDT 9:38 PM EDT
Moon 10:44 AM EDT (8/11) 10:05 PM EDT (8/11)
Length of Visible Light 14h 56m
Length of Day
13h 57m
Waxing Crescent, 22% of the Moon is Illuminated
Aug 11
Waxing Crescent
Aug 14
First Quarter
Aug 20
Full
Aug 28
Last Quarter
Sep 5
New

Hourly Weather History & Observations

Time (EDT) Temp. Dew Point Humidity Pressure Visibility Wind Dir Wind Speed Gust Speed Precip Events Conditions
12:53 AM 60.1 °F 55.9 °F 86% 30.06 in 10.0 mi Calm Calm - N/A   Partly Cloudy
1:53 AM 59.0 °F 55.0 °F 87% 30.07 in 10.0 mi North 3.5 mph - N/A   Clear
2:53 AM 55.0 °F 52.0 °F 89% 30.08 in 10.0 mi North 4.6 mph - N/A   Clear
3:53 AM 55.0 °F 52.0 °F 89% 30.09 in 10.0 mi Calm Calm - N/A   Clear
4:53 AM 53.1 °F 48.9 °F 86% 30.09 in 10.0 mi Calm Calm - N/A   Clear
5:53 AM 51.1 °F 46.9 °F 86% 30.11 in 10.0 mi Calm Calm - N/A   Clear
6:53 AM 54.0 °F 50.0 °F 86% 30.12 in 10.0 mi Calm Calm - N/A   Clear
7:53 AM 66.9 °F 55.0 °F 66% 30.12 in 10.0 mi NNW 4.6 mph - N/A   Clear
8:53 AM 70.0 °F 53.1 °F 55% 30.12 in 10.0 mi North 8.1 mph - N/A   Clear
9:53 AM 73.9 °F 53.1 °F 48% 30.12 in 10.0 mi North 4.6 mph - N/A   Clear
10:53 AM 75.9 °F 51.1 °F 42% 30.12 in 10.0 mi North 5.8 mph - N/A   Clear
11:53 AM 77.0 °F 54.0 °F 45% 30.12 in 10.0 mi Variable 5.8 mph - N/A   Clear
12:53 PM 77.0 °F 52.0 °F 42% 30.11 in 10.0 mi SSE 9.2 mph - N/A   Clear
1:53 PM 75.9 °F 54.0 °F 46% 30.10 in 10.0 mi Variable 6.9 mph - N/A   Clear
2:53 PM 77.0 °F 55.0 °F 47% 30.09 in 10.0 mi South 9.2 mph - N/A   Clear
3:53 PM 75.9 °F 55.9 °F 50% 30.07 in 10.0 mi South 6.9 mph - N/A   Scattered Clouds
4:53 PM 77.0 °F 55.0 °F 47% 30.07 in 10.0 mi SSW 8.1 mph - N/A   Scattered Clouds
5:53 PM 75.0 °F 55.9 °F 51% 30.06 in 10.0 mi SW 6.9 mph - N/A   Scattered Clouds
6:53 PM 73.0 °F 57.0 °F 57% 30.06 in 10.0 mi SW 5.8 mph - N/A   Mostly Cloudy
7:53 PM 72.0 °F 59.0 °F 64% 30.06 in 10.0 mi Variable 3.5 mph - N/A   Overcast
8:53 PM 72.0 °F 61.0 °F 68% 30.07 in 10.0 mi SW 3.5 mph - N/A   Overcast
9:53 PM 72.0 °F 61.0 °F 68% 30.08 in 10.0 mi SSW 4.6 mph - N/A   Overcast
10:53 PM 72.0 °F 60.1 °F 66% 30.08 in 10.0 mi SW 3.5 mph - N/A   Overcast
11:53 PM 69.1 °F 60.1 °F 73% 30.07 in 10.0 mi Calm Calm - N/A   Mostly Cloudy